KAC102 OKKK-OMAA

Flight info

Callsign KAC102
Flight time 1h 21m
Altitude 41000
Route BOXIK B416 IMDOX P975 LONOS P708 RESAR/N0502F350 P708 OVONA N318 KAPUM Z522 ALNEV Q415 UKILI
Aircraft A35K/H-SDE2E3GHIJ3J4J5LM1ORWXY/LB1D1

Departure

Time 2026-04-27 18:13
Airport Kuwait International Airport (OKKK)

Arrival

Time 2026-04-27 19:34
Airport Zayed International Airport (OMAA)
Time Latitude Longitude Altitude Speed Heading
2026-04-27 17:37 29.25044 47.96013 152 ft 0 kts 67°
2026-04-27 18:03 29.25043 47.96008 153 ft 4 kts 68°
2026-04-27 18:03 29.25032 47.95980 156 ft 4 kts 69°
2026-04-27 18:03 29.25026 47.95956 153 ft 2 kts 82°
2026-04-27 18:04 29.25025 47.95943 153 ft 2 kts 109°
2026-04-27 18:04 29.25031 47.95932 153 ft 2 kts 142°
2026-04-27 18:04 29.25040 47.95925 152 ft 2 kts 152°
2026-04-27 18:04 29.25050 47.95920 152 ft 2 kts 155°
2026-04-27 18:05 29.25053 47.95918 152 ft 1 kts 155°
2026-04-27 18:05 29.25046 47.95921 152 ft 2 kts 155°
2026-04-27 18:05 29.25039 47.95925 152 ft 0 kts 155°
2026-04-27 18:07 29.25038 47.95926 152 ft 1 kts 155°
2026-04-27 18:07 29.25025 47.95932 152 ft 3 kts 155°
2026-04-27 18:08 29.24996 47.95940 153 ft 5 kts 176°
2026-04-27 18:08 29.24947 47.95934 154 ft 9 kts 180°
2026-04-27 18:08 29.24883 47.95956 155 ft 10 kts 153°
2026-04-27 18:08 29.24814 47.95995 158 ft 12 kts 154°
2026-04-27 18:09 29.24736 47.96037 161 ft 13 kts 154°
2026-04-27 18:09 29.24656 47.96080 166 ft 13 kts 155°
2026-04-27 18:09 29.24579 47.96121 171 ft 12 kts 155°
2026-04-27 18:09 29.24508 47.96158 176 ft 11 kts 155°
2026-04-27 18:10 29.24460 47.96184 178 ft 12 kts 155°
2026-04-27 18:10 29.24384 47.96224 181 ft 13 kts 155°
2026-04-27 18:10 29.24301 47.96268 201 ft 14 kts 155°
2026-04-27 18:10 29.24223 47.96309 194 ft 8 kts 156°
2026-04-27 18:11 29.24161 47.96340 191 ft 12 kts 154°
2026-04-27 18:11 29.24093 47.96330 197 ft 6 kts 235°
2026-04-27 18:11 29.24083 47.96307 204 ft 0 kts 243°
2026-04-27 18:11 29.24082 47.96306 204 ft 1 kts 243°
2026-04-27 18:12 29.24077 47.96294 204 ft 6 kts 243°
2026-04-27 18:12 29.24024 47.96201 207 ft 18 kts 209°
2026-04-27 18:12 29.23820 47.96276 202 ft 66 kts 154°
2026-04-27 18:12 29.23091 47.96661 202 ft 162 kts 156°
2026-04-27 18:13 29.21911 47.97285 750 ft 200 kts 153°
2026-04-27 18:13 29.20639 47.97957 1559 ft 201 kts 158°
2026-04-27 18:13 29.19391 47.98607 2349 ft 194 kts 159°
2026-04-27 18:13 29.18261 47.99502 2834 ft 212 kts 133°
2026-04-27 18:14 29.17762 48.01194 3077 ft 245 kts 94°
2026-04-27 18:14 29.18306 48.03117 3399 ft 270 kts 57°
2026-04-27 18:14 29.19518 48.04856 3712 ft 287 kts 59°
2026-04-27 18:14 29.20073 48.07018 4199 ft 285 kts 95°
2026-04-27 18:15 29.19543 48.09129 4907 ft 274 kts 128°
2026-04-27 18:15 29.18272 48.10712 5582 ft 270 kts 145°
2026-04-27 18:15 29.16817 48.12043 6244 ft 273 kts 146°
2026-04-27 18:15 29.15361 48.13476 6882 ft 279 kts 141°
2026-04-27 18:16 29.14014 48.15107 7500 ft 286 kts 134°
2026-04-27 18:16 29.12792 48.16932 8128 ft 291 kts 129°
2026-04-27 18:16 29.11675 48.18886 8776 ft 296 kts 125°
2026-04-27 18:16 29.10611 48.20926 9421 ft 301 kts 123°
2026-04-27 18:17 29.09566 48.23015 10057 ft 303 kts 122°
2026-04-27 18:17 29.08521 48.25121 10703 ft 306 kts 122°
2026-04-27 18:17 29.07455 48.27251 11307 ft 310 kts 123°
2026-04-27 18:17 29.06368 48.29392 11929 ft 313 kts 123°
2026-04-27 18:18 29.05262 48.31548 12552 ft 316 kts 123°
2026-04-27 18:18 29.04139 48.33721 13179 ft 319 kts 123°
2026-04-27 18:18 29.03001 48.35916 13783 ft 323 kts 123°
2026-04-27 18:18 29.01850 48.38131 14332 ft 326 kts 123°
2026-04-27 18:19 29.00687 48.40368 14909 ft 329 kts 123°
2026-04-27 18:19 28.99513 48.42625 15492 ft 332 kts 123°
2026-04-27 18:19 28.98328 48.44902 16068 ft 335 kts 123°
2026-04-27 18:19 28.97130 48.47205 16626 ft 339 kts 124°
2026-04-27 18:20 28.95931 48.49507 17212 ft 342 kts 124°
2026-04-27 18:20 28.94709 48.51854 17789 ft 346 kts 124°
2026-04-27 18:20 28.93476 48.54222 18325 ft 349 kts 124°
2026-04-27 18:20 28.92229 48.56613 18812 ft 353 kts 124°
2026-04-27 18:21 28.90964 48.59037 19208 ft 360 kts 124°
2026-04-27 18:21 28.89659 48.61532 19498 ft 370 kts 124°
2026-04-27 18:21 28.88330 48.64074 19836 ft 378 kts 124°
2026-04-27 18:21 28.86962 48.66687 20036 ft 389 kts 124°
2026-04-27 18:22 28.85561 48.69365 20321 ft 396 kts 124°
2026-04-27 18:22 28.84144 48.72076 20731 ft 400 kts 124°
2026-04-27 18:22 28.82715 48.74811 21165 ft 402 kts 124°
2026-04-27 18:22 28.81276 48.77563 21582 ft 406 kts 124°
2026-04-27 18:23 28.79826 48.80336 21981 ft 409 kts 124°
2026-04-27 18:23 28.78400 48.83158 22402 ft 413 kts 123°
2026-04-27 18:23 28.76998 48.86027 22797 ft 416 kts 123°
2026-04-27 18:23 28.75600 48.88922 23210 ft 419 kts 123°
2026-04-27 18:24 28.74191 48.91844 23569 ft 422 kts 123°
2026-04-27 18:24 28.72765 48.94785 23890 ft 425 kts 123°
2026-04-27 18:24 28.71326 48.97732 24181 ft 429 kts 123°
2026-04-27 18:24 28.69866 49.00710 24476 ft 432 kts 123°
2026-04-27 18:25 28.68396 49.03702 24813 ft 434 kts 123°
2026-04-27 18:25 28.66915 49.06710 25138 ft 437 kts 123°
2026-04-27 18:25 28.65414 49.09751 25332 ft 443 kts 123°
2026-04-27 18:25 28.63890 49.12835 25493 ft 450 kts 123°
2026-04-27 18:26 28.62345 49.15962 25646 ft 457 kts 123°
2026-04-27 18:26 28.60727 49.19093 25765 ft 461 kts 127°
2026-04-27 18:26 28.58801 49.22022 25879 ft 463 kts 136°
2026-04-27 18:26 28.56522 49.24618 25983 ft 464 kts 145°
2026-04-27 18:27 28.53924 49.26763 26213 ft 460 kts 155°
2026-04-27 18:27 28.51213 49.28722 26506 ft 464 kts 151°
2026-04-27 18:27 28.48643 49.30978 26735 ft 471 kts 144°
2026-04-27 18:27 28.46332 49.33657 26765 ft 478 kts 135°
2026-04-27 18:28 28.44425 49.36778 26766 ft 486 kts 124°
2026-04-27 18:28 28.42985 49.40274 26751 ft 490 kts 117°
2026-04-27 18:28 28.41477 49.43748 26779 ft 490 kts 125°
2026-04-27 18:28 28.39716 49.47054 26779 ft 490 kts 127°
2026-04-27 18:29 28.37890 49.50322 26769 ft 490 kts 128°
2026-04-27 18:29 28.36046 49.53519 26768 ft 489 kts 129°
2026-04-27 18:29 28.34156 49.56730 26762 ft 490 kts 130°
2026-04-27 18:29 28.32250 49.59931 26769 ft 490 kts 130°
2026-04-27 18:30 28.30336 49.63131 26765 ft 490 kts 130°
2026-04-27 18:30 28.28420 49.66332 26768 ft 490 kts 130°
2026-04-27 18:30 28.26504 49.69533 26767 ft 490 kts 130°
2026-04-27 18:30 28.24585 49.72726 26749 ft 490 kts 131°
2026-04-27 18:31 28.22480 49.75732 26765 ft 483 kts 139°
2026-04-27 18:31 28.20090 49.78342 26749 ft 473 kts 148°
2026-04-27 18:31 28.17495 49.80605 26767 ft 469 kts 152°
2026-04-27 18:31 28.14836 49.82748 26749 ft 468 kts 153°
2026-04-27 18:32 28.12148 49.84831 26761 ft 467 kts 154°
2026-04-27 18:32 28.09454 49.86885 26759 ft 468 kts 154°
2026-04-27 18:32 28.06744 49.88947 26764 ft 468 kts 154°
2026-04-27 18:32 28.04045 49.91007 26763 ft 468 kts 154°
2026-04-27 18:33 28.01348 49.93077 26760 ft 468 kts 154°
2026-04-27 18:33 27.98655 49.95151 26759 ft 468 kts 154°
2026-04-27 18:33 27.95961 49.97230 26748 ft 469 kts 153°
2026-04-27 18:33 27.93302 49.99284 26763 ft 470 kts 153°
2026-04-27 18:34 27.90601 50.01369 26772 ft 470 kts 153°
2026-04-27 18:34 27.87895 50.03457 26763 ft 471 kts 153°
2026-04-27 18:34 27.85188 50.05545 26762 ft 471 kts 153°
2026-04-27 18:34 27.82486 50.07628 26763 ft 471 kts 153°
2026-04-27 18:35 27.79779 50.09713 26758 ft 471 kts 153°
2026-04-27 18:35 27.77072 50.11796 26750 ft 471 kts 153°
2026-04-27 18:35 27.74363 50.13879 26765 ft 471 kts 153°
2026-04-27 18:35 27.71652 50.15962 26761 ft 471 kts 153°
2026-04-27 18:36 27.68941 50.18044 26762 ft 471 kts 153°
2026-04-27 18:36 27.66230 50.20125 26768 ft 471 kts 153°
2026-04-27 18:36 27.63520 50.22203 26761 ft 472 kts 153°
2026-04-27 18:36 27.60802 50.24286 26764 ft 472 kts 153°
2026-04-27 18:37 27.58090 50.26364 26761 ft 472 kts 153°
2026-04-27 18:37 27.55373 50.28445 26763 ft 472 kts 154°
2026-04-27 18:37 27.52661 50.30521 26763 ft 472 kts 154°
2026-04-27 18:37 27.49950 50.32599 26763 ft 472 kts 153°
2026-04-27 18:38 27.47231 50.34683 26763 ft 472 kts 153°
2026-04-27 18:38 27.44517 50.36760 26763 ft 472 kts 154°
2026-04-27 18:38 27.41801 50.38837 26763 ft 472 kts 154°
2026-04-27 18:38 27.39088 50.40910 26763 ft 472 kts 154°
2026-04-27 18:39 27.36371 50.42985 26762 ft 472 kts 153°
2026-04-27 18:39 27.33654 50.45060 26761 ft 472 kts 154°
2026-04-27 18:39 27.30959 50.47201 26761 ft 475 kts 151°
2026-04-27 18:39 27.28318 50.49435 26761 ft 476 kts 150°
2026-04-27 18:40 27.25730 50.51683 26761 ft 477 kts 149°
2026-04-27 18:40 27.23108 50.53971 26748 ft 477 kts 149°
2026-04-27 18:40 27.20486 50.56246 26762 ft 477 kts 150°
2026-04-27 18:40 27.17851 50.58513 26802 ft 478 kts 150°
2026-04-27 18:41 27.15200 50.60774 27111 ft 479 kts 150°
2026-04-27 18:41 27.12538 50.63035 27475 ft 480 kts 150°
2026-04-27 18:41 27.09865 50.65298 27827 ft 482 kts 150°
2026-04-27 18:41 27.07180 50.67568 28149 ft 485 kts 150°
2026-04-27 18:42 27.04464 50.69803 28482 ft 484 kts 153°
2026-04-27 18:42 27.02617 50.71206 28727 ft 484 kts 154°
2026-04-27 18:42 26.98821 50.73940 29229 ft 484 kts 155°
2026-04-27 18:42 26.95971 50.75954 29715 ft 483 kts 155°
2026-04-27 18:43 26.93132 50.77971 30160 ft 483 kts 155°
2026-04-27 18:43 26.90304 50.80000 30567 ft 484 kts 155°
2026-04-27 18:43 26.87474 50.82049 30982 ft 484 kts 155°
2026-04-27 18:43 26.84646 50.84111 31375 ft 485 kts 155°
2026-04-27 18:44 26.81821 50.86176 31803 ft 485 kts 155°
2026-04-27 18:44 26.79025 50.88222 32228 ft 486 kts 155°
2026-04-27 18:44 26.76156 50.90318 32568 ft 488 kts 156°
2026-04-27 18:44 26.73306 50.92399 32938 ft 489 kts 156°
2026-04-27 18:45 26.70490 50.94455 33352 ft 489 kts 156°
2026-04-27 18:45 26.67637 50.96537 33767 ft 490 kts 156°
2026-04-27 18:45 26.64785 50.98617 34115 ft 490 kts 156°
2026-04-27 18:45 26.61929 51.00699 34500 ft 489 kts 156°
2026-04-27 18:46 26.59078 51.02776 34702 ft 489 kts 156°
2026-04-27 18:46 26.56232 51.04849 34755 ft 488 kts 156°
2026-04-27 18:46 26.50540 51.08986 34755 ft 488 kts 156°
2026-04-27 18:47 26.44842 51.13121 34752 ft 489 kts 156°
2026-04-27 18:47 26.39135 51.17260 34755 ft 489 kts 156°
2026-04-27 18:48 26.33433 51.21397 34755 ft 489 kts 156°
2026-04-27 18:48 26.27726 51.25521 34740 ft 488 kts 155°
2026-04-27 18:49 26.22054 51.29615 34750 ft 489 kts 155°
2026-04-27 18:49 26.16339 51.33737 34756 ft 489 kts 155°
2026-04-27 18:50 26.10663 51.37960 34752 ft 496 kts 150°
2026-04-27 18:50 26.05791 51.43568 34756 ft 516 kts 130°
2026-04-27 18:51 26.02039 51.50426 34754 ft 521 kts 124°
2026-04-27 18:51 25.98514 51.57490 34755 ft 522 kts 124°
2026-04-27 18:52 25.94996 51.64547 34758 ft 522 kts 124°
2026-04-27 18:53 25.89657 51.75092 34757 ft 521 kts 124°
2026-04-27 18:53 25.86185 51.82157 34764 ft 521 kts 123°
2026-04-27 18:54 25.82758 51.89249 34754 ft 522 kts 121°
2026-04-27 18:54 25.79646 51.96562 34764 ft 524 kts 118°
2026-04-27 18:55 25.76663 52.03942 34767 ft 523 kts 118°
2026-04-27 18:55 25.73640 52.11266 34768 ft 522 kts 119°
2026-04-27 18:56 25.70584 52.18529 34769 ft 522 kts 119°
2026-04-27 18:56 25.67999 52.24634 34769 ft 522 kts 119°
2026-04-27 18:57 25.64928 52.31877 34770 ft 522 kts 119°
2026-04-27 18:57 25.61835 52.39165 34769 ft 523 kts 119°
2026-04-27 18:58 25.58491 52.46287 34769 ft 520 kts 124°
2026-04-27 18:58 25.54865 52.53211 34768 ft 520 kts 124°
2026-04-27 18:59 25.51257 52.60145 34766 ft 521 kts 124°
2026-04-27 18:59 25.47692 52.67132 34764 ft 521 kts 123°
2026-04-27 18:59 25.45921 52.70626 34648 ft 518 kts 123°
2026-04-27 19:00 25.44163 52.74093 34015 ft 518 kts 124°
2026-04-27 19:00 25.42330 52.77551 33100 ft 523 kts 125°
2026-04-27 19:00 25.40438 52.80987 32363 ft 523 kts 126°
2026-04-27 19:00 25.38526 52.84388 31781 ft 519 kts 126°
2026-04-27 19:01 25.36614 52.87764 31199 ft 516 kts 126°
2026-04-27 19:01 25.34714 52.91122 30579 ft 514 kts 126°
2026-04-27 19:01 25.32827 52.94474 29972 ft 512 kts 126°
2026-04-27 19:01 25.31150 52.97947 29339 ft 511 kts 119°
2026-04-27 19:02 25.29632 53.01479 28780 ft 506 kts 118°
2026-04-27 19:02 25.28170 53.04993 28183 ft 501 kts 117°
2026-04-27 19:02 25.26742 53.08483 27624 ft 496 kts 117°
2026-04-27 19:02 25.25335 53.11943 27100 ft 491 kts 116°
2026-04-27 19:03 25.23961 53.15322 26578 ft 486 kts 116°
2026-04-27 19:03 25.22580 53.18708 26054 ft 480 kts 116°
2026-04-27 19:03 25.21212 53.22053 25530 ft 475 kts 116°
2026-04-27 19:03 25.20312 53.24247 25191 ft 472 kts 116°
2026-04-27 19:04 25.18482 53.28617 24533 ft 463 kts 120°
2026-04-27 19:04 25.16786 53.31601 23963 ft 456 kts 130°
2026-04-27 19:04 25.14881 53.34375 23425 ft 452 kts 132°
2026-04-27 19:04 25.12925 53.37060 22833 ft 446 kts 133°
2026-04-27 19:05 25.10959 53.39681 22255 ft 441 kts 134°
2026-04-27 19:05 25.09002 53.42259 21678 ft 436 kts 134°
2026-04-27 19:05 25.07065 53.44808 21117 ft 431 kts 134°
2026-04-27 19:05 25.05148 53.47337 20560 ft 427 kts 134°
2026-04-27 19:06 25.03258 53.49841 20021 ft 422 kts 134°
2026-04-27 19:06 25.01392 53.52321 19478 ft 418 kts 134°
2026-04-27 19:06 24.99569 53.54747 18926 ft 415 kts 134°
2026-04-27 19:06 24.97598 53.57042 18257 ft 410 kts 143°
2026-04-27 19:07 24.95312 53.58854 17671 ft 401 kts 153°
2026-04-27 19:07 24.92908 53.60365 17074 ft 395 kts 156°
2026-04-27 19:07 24.90479 53.61729 16635 ft 387 kts 158°
2026-04-27 19:07 24.88096 53.62991 16359 ft 374 kts 159°
2026-04-27 19:08 24.85781 53.64193 16118 ft 361 kts 159°
2026-04-27 19:08 24.83546 53.65352 15898 ft 349 kts 159°
2026-04-27 19:08 24.81381 53.66481 15657 ft 339 kts 159°
2026-04-27 19:08 24.79291 53.67643 15285 ft 336 kts 154°
2026-04-27 19:09 24.77389 53.69121 14905 ft 335 kts 142°
2026-04-27 19:09 24.75812 53.71008 14768 ft 337 kts 128°
2026-04-27 19:09 24.74553 53.73192 14748 ft 338 kts 122°
2026-04-27 19:09 24.73391 53.75439 14747 ft 338 kts 121°
2026-04-27 19:10 24.72241 53.77697 14750 ft 338 kts 121°
2026-04-27 19:10 24.71095 53.79950 14752 ft 338 kts 121°
2026-04-27 19:10 24.69944 53.82212 14752 ft 338 kts 121°
2026-04-27 19:10 24.69184 53.83704 14746 ft 338 kts 121°
2026-04-27 19:11 24.67643 53.86729 14253 ft 338 kts 121°
2026-04-27 19:11 24.66499 53.88976 13885 ft 333 kts 121°
2026-04-27 19:11 24.65372 53.91186 13484 ft 330 kts 121°
2026-04-27 19:11 24.64255 53.93376 13026 ft 328 kts 121°
2026-04-27 19:12 24.63173 53.95537 12544 ft 326 kts 118°
2026-04-27 19:12 24.62221 53.97800 12071 ft 325 kts 114°
2026-04-27 19:12 24.61318 54.00066 11796 ft 323 kts 114°
2026-04-27 19:12 24.60408 54.02322 11747 ft 324 kts 114°
2026-04-27 19:13 24.59485 54.04577 11737 ft 323 kts 115°
2026-04-27 19:13 24.58559 54.06824 11738 ft 323 kts 115°
2026-04-27 19:13 24.57629 54.09069 11588 ft 323 kts 115°
2026-04-27 19:13 24.56693 54.11321 11130 ft 323 kts 115°
2026-04-27 19:14 24.55765 54.13550 10729 ft 320 kts 114°
2026-04-27 19:14 24.54839 54.15770 10309 ft 318 kts 114°
2026-04-27 19:14 24.53922 54.17968 9929 ft 316 kts 114°
2026-04-27 19:14 24.53012 54.20162 9766 ft 316 kts 113°
2026-04-27 19:15 24.52210 54.22407 9739 ft 316 kts 109°
2026-04-27 19:15 24.51459 54.24672 9738 ft 315 kts 109°
2026-04-27 19:15 24.50702 54.26933 9736 ft 316 kts 109°
2026-04-27 19:15 24.49935 54.29196 9735 ft 316 kts 109°
2026-04-27 19:16 24.49161 54.31459 9654 ft 317 kts 109°
2026-04-27 19:16 24.48646 54.32959 9346 ft 318 kts 109°
2026-04-27 19:16 24.47622 54.35929 9050 ft 303 kts 109°
2026-04-27 19:16 24.46885 54.38059 8844 ft 293 kts 109°
2026-04-27 19:17 24.46172 54.40118 8751 ft 287 kts 109°
2026-04-27 19:17 24.45471 54.42140 8746 ft 287 kts 109°
2026-04-27 19:17 24.44762 54.44185 8751 ft 287 kts 109°
2026-04-27 19:17 24.44053 54.46227 8747 ft 287 kts 109°
2026-04-27 19:18 24.43343 54.48274 8746 ft 287 kts 109°
2026-04-27 19:18 24.42633 54.50316 8753 ft 287 kts 109°
2026-04-27 19:18 24.41831 54.52320 8743 ft 289 kts 119°
2026-04-27 19:18 24.40682 54.54126 8746 ft 289 kts 127°
2026-04-27 19:19 24.39438 54.55859 8749 ft 289 kts 128°
2026-04-27 19:19 24.38196 54.57573 8500 ft 285 kts 127°
2026-04-27 19:19 24.36968 54.59280 8055 ft 286 kts 127°
2026-04-27 19:19 24.35738 54.60994 7658 ft 285 kts 127°
2026-04-27 19:20 24.34519 54.62698 7286 ft 284 kts 127°
2026-04-27 19:20 24.33300 54.64402 6902 ft 283 kts 127°
2026-04-27 19:20 24.32092 54.66092 6529 ft 281 kts 127°
2026-04-27 19:20 24.30887 54.67778 6131 ft 280 kts 128°
2026-04-27 19:21 24.29689 54.69454 5755 ft 278 kts 127°
2026-04-27 19:21 24.28497 54.71119 5407 ft 276 kts 127°
2026-04-27 19:21 24.27316 54.72768 5031 ft 274 kts 126°
2026-04-27 19:21 24.26144 54.74405 4685 ft 272 kts 126°
2026-04-27 19:22 24.24977 54.76036 4290 ft 272 kts 126°
2026-04-27 19:22 24.23810 54.77669 3910 ft 272 kts 125°
2026-04-27 19:22 24.22645 54.79298 3757 ft 271 kts 126°
2026-04-27 19:22 24.21498 54.80899 3744 ft 270 kts 126°
2026-04-27 19:23 24.20338 54.82522 3747 ft 271 kts 125°
2026-04-27 19:23 24.19180 54.84148 3745 ft 271 kts 125°
2026-04-27 19:23 24.18018 54.85776 3751 ft 272 kts 126°
2026-04-27 19:23 24.16851 54.87409 3753 ft 272 kts 126°
2026-04-27 19:24 24.15685 54.89041 3754 ft 272 kts 126°
2026-04-27 19:24 24.14538 54.90652 3747 ft 261 kts 126°
2026-04-27 19:24 24.13442 54.92179 3749 ft 251 kts 125°
2026-04-27 19:24 24.12391 54.93689 3750 ft 249 kts 121°
2026-04-27 19:25 24.11772 54.95413 3749 ft 240 kts 90°
2026-04-27 19:25 24.12067 54.97133 3760 ft 226 kts 56°
2026-04-27 19:25 24.13059 54.98401 3761 ft 218 kts 34°
2026-04-27 19:25 24.14259 54.99425 3761 ft 219 kts 32°
2026-04-27 19:26 24.15571 55.00232 3753 ft 215 kts 15°
2026-04-27 19:26 24.17023 55.00412 3755 ft 209 kts 351°
2026-04-27 19:26 24.18371 54.99871 3755 ft 209 kts 327°
2026-04-27 19:26 24.19421 54.98766 3755 ft 211 kts 311°
2026-04-27 19:27 24.20323 54.97496 3754 ft 212 kts 309°
2026-04-27 19:27 24.21213 54.96211 3756 ft 212 kts 310°
2026-04-27 19:27 24.22115 54.94921 3499 ft 216 kts 310°
2026-04-27 19:27 24.23030 54.93623 3214 ft 214 kts 310°
2026-04-27 19:28 24.23934 54.92346 2950 ft 209 kts 310°
2026-04-27 19:28 24.24821 54.91098 2777 ft 208 kts 310°
2026-04-27 19:28 24.25706 54.89858 2752 ft 209 kts 310°
2026-04-27 19:28 24.26606 54.88597 2748 ft 209 kts 310°
2026-04-27 19:29 24.27503 54.87340 2748 ft 209 kts 310°
2026-04-27 19:29 24.28395 54.86089 2759 ft 208 kts 310°
2026-04-27 19:29 24.29291 54.84835 2748 ft 209 kts 310°
2026-04-27 19:29 24.30188 54.83578 2745 ft 210 kts 310°
2026-04-27 19:30 24.31085 54.82315 2745 ft 210 kts 310°
2026-04-27 19:30 24.31945 54.81101 2740 ft 193 kts 310°
2026-04-27 19:30 24.32734 54.79988 2745 ft 180 kts 310°
2026-04-27 19:30 24.33499 54.78922 2750 ft 177 kts 310°
2026-04-27 19:31 24.34257 54.77862 2736 ft 177 kts 309°
2026-04-27 19:31 24.34981 54.76782 2531 ft 170 kts 309°
2026-04-27 19:31 24.35676 54.75793 2267 ft 161 kts 308°
2026-04-27 19:31 24.36361 54.74819 1976 ft 159 kts 310°
2026-04-27 19:32 24.37036 54.73858 1728 ft 158 kts 310°
2026-04-27 19:32 24.37714 54.72912 1474 ft 157 kts 310°
2026-04-27 19:32 24.38396 54.72017 1234 ft 149 kts 308°
2026-04-27 19:32 24.39013 54.71153 1066 ft 139 kts 307°
2026-04-27 19:33 24.39571 54.70309 862 ft 134 kts 308°
2026-04-27 19:33 24.39951 54.69780 728 ft 133 kts 309°
2026-04-27 19:33 24.40735 54.68718 567 ft 134 kts 308°
2026-04-27 19:33 24.41322 54.67918 399 ft 136 kts 304°
2026-04-27 19:34 24.41906 54.67095 224 ft 138 kts 306°
2026-04-27 19:34 24.42497 54.66254 96 ft 136 kts 308°
2026-04-27 19:34 24.42940 54.65632 92 ft 64 kts 308°
2026-04-27 19:34 24.43132 54.65364 94 ft 48 kts 306°
2026-04-27 19:35 24.43357 54.65051 94 ft 56 kts 308°
2026-04-27 19:35 24.43599 54.64705 92 ft 46 kts 300°
2026-04-27 19:35 24.43738 54.64688 87 ft 12 kts 38°
2026-04-27 19:35 24.43742 54.64691 87 ft 0 kts 38°
2026-04-27 19:36 24.43748 54.64696 87 ft 4 kts 38°
2026-04-27 19:36 24.43789 54.64720 86 ft 8 kts 12°
2026-04-27 19:36 24.43830 54.64693 86 ft 9 kts 312°
2026-04-27 19:37 24.43879 54.64623 87 ft 14 kts 308°
2026-04-27 19:37 24.43949 54.64523 87 ft 19 kts 307°
2026-04-27 19:37 24.44036 54.64399 87 ft 22 kts 307°
2026-04-27 19:37 24.44129 54.64287 86 ft 10 kts 343°
2026-04-27 19:38 24.44168 54.64317 86 ft 9 kts 54°
2026-04-27 19:38 24.44220 54.64386 86 ft 14 kts 38°
2026-04-27 19:38 24.44305 54.64391 87 ft 12 kts 321°
2026-04-27 19:38 24.44378 54.64315 87 ft 17 kts 313°
2026-04-27 19:39 24.44472 54.64219 86 ft 19 kts 329°
2026-04-27 19:39 24.44550 54.64214 86 ft 3 kts 57°
2026-04-27 19:39 24.44576 54.64241 87 ft 8 kts 41°
2026-04-27 19:39 24.44599 54.64281 87 ft 0 kts 63°
2026-04-27 19:40 24.44601 54.64286 87 ft 0 kts 63°